Alice Springs, Australia

7:33 PM ACST on September 20, 2017 (GMT +0930)
Alice Springs

Weather History for YBAS - February, 2013

Change the Weather History Date:

Monday, February 11, 2013

  Actual Average Record
Temperature  
Mean Temperature 76 °F -  
Max Temperature 84 °F 93 °F 105 °F (2017)
Min Temperature 67 °F 67 °F 57 °F (2002)
Cooling Degree Days 10    
Growing Degree Days 26 (Base 50)    
Moisture  
Dew Point 61 °F    
Average Humidity 64    
Maximum Humidity 94    
Minimum Humidity 25    
Precipitation  
Precipitation 0.00 in 0.06 in - ()
Sea Level Pressure  
Sea Level Pressure 29.96 in    
Wind  
Wind Speed 7 mph ()    
Max Wind Speed 20 mph    
Max Gust Speed -    
Visibility 7.0 miles    
Events Rain    
Averages and records for this station are not official NWS values.
T = Trace of Precipitation, MM = Missing Value Source: Averaged Metar Reports

Daily Weather History Graph

Daily Weather History Graph

Search for Another Location

Airport or City:

Trip Planner

Search our weather history database for the weather conditions in past years. The results will help you decide how hot, cold, wet, or windy it might be!

Date:

Astronomy

Feb. 11, 2013 Rise Set
Actual Time 6:19 AM ACST 7:17 PM ACST
Civil Twilight 5:55 AM ACST 7:41 PM ACST
Nautical Twilight 5:27 AM ACST 8:08 PM ACST
Astronomical Twilight 4:59 AM ACST 8:37 PM ACST
Moon 7:00 AM ACST (2/11) 7:44 PM ACST (2/11)
Length of Visible Light 13h 45m
Length of Day
12h 58m
New Moon, 1% of the Moon is Illuminated
Feb 11
New Moon
Feb 18
First Quarter
Feb 26
Full
Mar 5
Last Quarter
Mar 12
New

Hourly Weather History & Observations

Time (ACST) Temp. Heat Index Dew Point Humidity Pressure Visibility Wind Dir Wind Speed Gust Speed Precip Events Conditions
12:00 AM 71 °F - 68 °F 86% 29.89 in - NNW 5.8 mph - -   Overcast
12:00 AM 71.6 °F - 68.0 °F 88% 30.01 in 6.2 mi NNW 5.8 mph - N/A   Overcast
12:30 AM 71 °F - 66 °F 79% 29.91 in - WNW 9.2 mph - -  
12:30 AM 71.6 °F - 66.2 °F 83% 30.01 in 6.2 mi WNW 9.2 mph - N/A   Overcast
1:00 AM 71.6 °F - 66.2 °F 83% 30.01 in 6.2 mi North 6.9 mph - N/A   Overcast
1:30 AM 71.6 °F - 68.0 °F 88% 30.01 in 6.2 mi Calm Calm - N/A   Overcast
2:00 AM 69.8 °F - 68.0 °F 94% 30.01 in 6.2 mi South 1.2 mph - N/A   Overcast
2:30 AM 69.8 °F - 68.0 °F 94% 29.98 in 6.2 mi East 6.9 mph - N/A   Overcast
3:00 AM 69 °F - 64 °F 79% 29.88 in - East 6.9 mph - -   Overcast
3:00 AM 69.8 °F - 64.4 °F 83% 29.98 in 6.2 mi East 6.9 mph - N/A   Overcast
3:30 AM 69 °F - 64 °F 80% 29.88 in - NE 5.8 mph - -  
3:30 AM 68.0 °F - 64.4 °F 88% 29.98 in 6.2 mi NE 5.8 mph - N/A   Overcast
4:00 AM 68.0 °F - 64.4 °F 88% 30.01 in 6.2 mi NW 5.8 mph - N/A   Overcast
4:30 AM 68.0 °F - 64.4 °F 88% 29.98 in 6.2 mi WSW 2.3 mph - N/A   Overcast
5:00 AM 68.0 °F - 66.2 °F 94% 29.98 in 6.2 mi West 3.5 mph - N/A   Overcast
5:30 AM 68.0 °F - 64.4 °F 88% 29.95 in 6.2 mi NW 5.8 mph - N/A   Overcast
6:00 AM 68 °F - 66 °F 90% 29.86 in 9 mi NE 4.6 mph - - Rain Light Rain
6:00 AM 68.0 °F - 66.2 °F 94% 29.98 in 6.2 mi NE 4.6 mph - N/A Rain Light Rain
6:30 AM 68 °F - 65 °F 88% 29.86 in - ESE 4.6 mph - -  
6:30 AM 68.0 °F - 66.2 °F 94% 29.98 in 6.2 mi ESE 4.6 mph - N/A Rain Light Rain
7:00 AM 68.0 °F - 66.2 °F 94% 29.98 in 6.2 mi SE 1.2 mph - N/A   Overcast
7:30 AM 68.0 °F - 66.2 °F 94% 29.98 in 6.2 mi West 4.6 mph - N/A Rain Light Rain
8:00 AM 69.8 °F - 66.2 °F 88% 29.98 in 6.2 mi SW 4.6 mph - N/A Rain Light Rain
8:30 AM 69.8 °F - 66.2 °F 88% 29.98 in 6.2 mi SSW 5.8 mph - N/A Rain Light Rain
9:00 AM 71 °F - 66 °F 81% 29.88 in 12 mi NW 5.8 mph - - Rain Light Rain
9:00 AM 71.6 °F - 66.2 °F 83% 29.98 in - NW 5.8 mph - N/A   Clear
9:30 AM 72 °F - 65 °F 72% 29.89 in - NNW 6.9 mph - -  
9:30 AM 71.6 °F - 64.4 °F 78% 30.01 in 6.2 mi NNW 6.9 mph - N/A   Mostly Cloudy
10:00 AM 73.4 °F - 64.4 °F 73% 30.01 in - NNE 6.9 mph - N/A   Clear
10:30 AM 75.2 °F - 64.4 °F 69% 30.01 in 6.2 mi ENE 6.9 mph - N/A   Mostly Cloudy
11:00 AM 77.0 °F - 62.6 °F 61% 30.01 in 6.2 mi East 9.2 mph - N/A   Mostly Cloudy
11:30 AM 78.8 °F - 62.6 °F 57% 30.01 in 6.2 mi East 11.5 mph - N/A   Mostly Cloudy
12:00 PM 79 °F - 61 °F 44% 29.88 in 16 mi SE 10.4 mph - - Rain Light Rain Showers
12:00 PM 78.8 °F - 60.8 °F 54% 29.98 in 6.2 mi SE 10.4 mph - N/A Rain Light Rain Showers
12:30 PM 81 °F - 57 °F 33% 29.87 in - SE 13.8 mph - -  
12:30 PM 80.6 °F 80.8 °F 57.2 °F 45% 29.98 in - SE 13.8 mph - N/A   Clear
1:00 PM 84.2 °F 83.5 °F 57.2 °F 40% 29.98 in - SE 15.0 mph - N/A   Clear
1:30 PM 84.2 °F 83.0 °F 55.4 °F 37% 29.95 in - SE 15.0 mph - N/A   Clear
2:00 PM 84.2 °F 83.0 °F 55.4 °F 37% 29.95 in - SSE 13.8 mph - N/A   Clear
2:30 PM 84.2 °F 83.0 °F 55.4 °F 37% 29.95 in - ESE 13.8 mph - N/A   Clear
3:00 PM 84 °F - 55 °F 26% 29.83 in 19 mi ESE 19.6 mph - -   Partly Cloudy
3:00 PM 84.2 °F 83.0 °F 55.4 °F 37% 29.95 in - ESE 19.6 mph - N/A   Clear
3:30 PM 84 °F - 54 °F 25% 29.83 in - ESE 15.0 mph - -  
3:30 PM 84.2 °F 82.8 °F 53.6 °F 35% 29.95 in - ESE 15.0 mph - N/A   Clear
4:00 PM 84.2 °F 82.8 °F 53.6 °F 35% 29.92 in - SE 15.0 mph - N/A   Clear
4:30 PM 84.2 °F 82.8 °F 53.6 °F 35% 29.92 in - SE 15.0 mph - N/A   Clear
5:00 PM 82.4 °F 81.4 °F 53.6 °F 37% 29.92 in - ESE 16.1 mph - N/A   Clear
5:30 PM 80.6 °F 80.5 °F 55.4 °F 42% 29.95 in 6.2 mi ESE 11.5 mph - N/A   Overcast
6:00 PM 80 °F - 55 °F 32% 29.85 in - SE 13.8 mph - -  
6:00 PM 78.8 °F - 55.4 °F 44% 29.95 in 6.2 mi SE 13.8 mph - N/A   Overcast
6:30 PM 79 °F - 55 °F 32% 29.86 in - ESE 12.7 mph - -  
6:30 PM 78.8 °F - 55.4 °F 44% 29.98 in 6.2 mi ESE 12.7 mph - N/A   Scattered Clouds
7:00 PM 78.8 °F - 55.4 °F 44% 29.98 in 6.2 mi ESE 11.5 mph - N/A   Overcast
7:30 PM 77.0 °F - 55.4 °F 47% 29.98 in 6.2 mi ESE 12.7 mph - N/A   Overcast
8:00 PM 75.2 °F - 55.4 °F 50% 29.98 in 6.2 mi SE 11.5 mph - N/A   Overcast
8:30 PM 75.2 °F - 57.2 °F 53% 30.01 in 6.2 mi SE 8.1 mph - N/A   Overcast
9:00 PM 75 °F - 58 °F 45% 29.91 in - ESE 6.9 mph - -   Overcast
9:00 PM 75.2 °F - 57.2 °F 53% 30.01 in 6.2 mi ESE 6.9 mph - N/A   Overcast
9:30 PM 75 °F - 58 °F 44% 29.92 in - ESE 8.1 mph - -  
9:30 PM 75.2 °F - 57.2 °F 53% 30.01 in 6.2 mi ESE 8.1 mph - N/A   Overcast
10:00 PM 75.2 °F - 57.2 °F 53% 30.04 in 6.2 mi SE 5.8 mph - N/A   Overcast
10:30 PM 73.4 °F - 60.8 °F 65% 30.01 in 6.2 mi ESE 5.8 mph - N/A   Scattered Clouds
11:00 PM 73.4 °F - 62.6 °F 69% 30.04 in 6.2 mi SW 3.5 mph - N/A   Overcast
11:30 PM 73.4 °F - 60.8 °F 65% 30.01 in 6.2 mi SW 4.6 mph - N/A   Mostly Cloudy